Tracking 18980 objects as of 22-Feb-2018
HD Live streaming from Space Station
objects crossing your sky now

FENGYUN 1C DEB

Track FENGYUN 1C DEB now!
10-day predictions


NORAD ID: 40999
Int'l Code: 1999-025EXD
Perigee: 855.1 km
Apogee: 946.1 km
Inclination: 99.3 °
Period: 102.9 minutes
Semi major axis: 7271 km
RCS: Unknown
Launch date: May 10, 1999
Source: People's Republic of China (PRC)
Launch site: Taiyaun Space Center, China (TSC)

Note: This is SATELLITE DEBRIS
aabbcc
Your satellite tracking list
Your tracking list is empty




NASA's NSSDC Master Catalog

Two Line Element Set (TLE):
1 40999U 99025EXD 18053.18254792  .00000623  00000-0  44606-3 0  9995
2 40999  99.2686  43.8179 0062524 174.3840 185.8038 14.00097154416321
Source of the keplerian elements: AFSPC